Location: Blavincourt
(50.2785°N, 2.4793°E)
Time: 10:44:26
(UTC+00:00)

Daily predictions for brighter satellites

Satellite Brightness Start Highest point End
(mag) Time Altitude Azimuth Time Altitude Azimuth Time Altitude Azimuth
Tsikada Rocket 4.1 20:18:11 10° S 20:24:23 84° E 20:30:43 10° N
Cosmos 1943 3.4 20:21:27 10° S 20:26:55 51° ESE 20:32:24 10° NE
Okean 3 Rocket 3.6 20:23:28 10° N 20:27:52 67° ENE 20:32:12 10° SSE
IRS-1C Rocket 4.1 20:22:47 10° SSE 20:28:02 79° ENE 20:33:20 10° NNW
Cosmos 1842 Rocket 3.9 20:24:25 10° SSE 20:28:41 50° E 20:32:57 10° NNE
Spot 2 Rocket 4.0 20:25:48 10° SE 20:30:37 48° ENE 20:35:28 10° N
ISS -2.8 20:27:30 10° W 20:30:38 36° SSW 20:33:45 10° SE
Resurs 01 Rocket 3.5 20:27:21 10° SSW 20:31:14 29° W 20:35:08 10° NNW
IRS-1A Rocket 4.3 20:26:10 10° SSE 20:31:46 79° ENE 20:37:20 10° NNW
ARGOS Delta rocket 4.0 20:28:18 10° SSE 20:33:13 62° ENE 20:37:52 10° N
NOSS 2-1 (D) 4.4 20:32:06 10° NNW 20:35:28 37° NE 20:39:49 10° ESE
Cosmos 1340 4.0 20:36:28 10° NNE 20:39:13 22° ENE 20:41:58 10° ESE
Sich 1 3.9 20:36:55 10° N 20:40:57 35° ENE 20:44:54 10° SE
SPOT 3 Rocket 3.9 20:36:29 10° SE 20:41:28 53° ENE 20:46:27 10° N
Okean O Rocket 3.5 20:37:40 10° SSW 20:41:28 28° W 20:45:18 10° NW
USA 307 -0.7 20:42:35 10° WNW 20:43:24 45° SSW 20:43:28 43° S
Cosmos 2221 3.5 20:41:01 10° SSW 20:45:13 51° WNW 20:49:28 10° N
Meteor 1-27 Rocket 4.4 20:41:38 10° SSE 20:46:38 37° E 20:51:41 10° NNE
USA 281 3.6 20:43:43 10° SE 20:50:06 55° NE 20:56:30 10° NNW
Ariane Rocket 3.1 20:48:29 10° SSE 20:53:32 71° ENE 20:58:36 10° N
Terra 1.9 20:59:44 10° SSE 21:04:27 82° WSW 21:09:12 10° NNW
Cosmos 1452 Rocket 4.0 21:01:06 10° NNW 21:06:16 59° WSW 21:11:23 10° S
Cosmos 1340 Rocket 3.5 21:03:13 13° SSE 21:06:27 37° E 21:10:09 10° NNE
MOS 1 Rocket 3.6 21:02:03 11° SSE 21:06:57 76° ENE 21:12:20 10° N
Cosmos 1743 Rocket 3.8 21:02:55 10° N 21:07:17 57° ENE 21:10:55 14° SSE
USA 234 4.2 21:05:12 10° ENE 21:11:30 51° N 21:17:46 10° WNW
NOSS 2-1 (C) 3.6 21:08:24 10° NW 21:12:02 66° NE 21:16:10 14° SE
Cosmos 468 4.5 21:06:57 10° SSW 21:12:10 84° ESE 21:17:25 10° NNE
Lacrosse 5 rocket 3.2 21:08:34 10° WNW 21:12:29 33° N 21:16:18 10° ENE
ARIANE 5 R/B 4.3 21:12:44 11° ESE 21:15:57 22° ENE 21:19:16 10° N
Cosmos 1408 Rocket 3.8 21:12:36 10° NNW 21:17:02 69° W 21:21:17 11° S
ERS-1 Rocket 3.5 21:12:52 10° S 21:17:48 56° W 21:22:46 10° NNW
Meteor 2-10 4.1 21:13:58 10° NNW 21:19:33 89° ENE 21:24:13 14° S
USA 245 4.0 21:22:29 11° SSW 21:24:17 24° W 21:26:20 10° NW
Spot 1 4.1 21:20:34 10° NNE 21:24:36 55° ESE 21:28:05 14° S
SL-8 R/B 3.6 21:20:12 10° WSW 21:24:55 69° S 21:29:40 10° E
Cosmos 1626 3.7 21:24:36 14° ESE 21:25:29 16° E 21:27:33 10° NE
Nadezhda 4 Rocket 4.0 21:21:16 10° S 21:27:19 67° E 21:33:33 10° NNE
Cosmos 614 Rocket 4.5 21:25:40 14° S 21:29:45 42° ESE 21:34:39 10° NE
Meteor 1-19 Rocket 4.3 21:29:10 10° S 21:35:03 84° E 21:40:47 10° NNE
Cosmos 1603 3.8 21:31:08 10° SSW 21:36:49 80° WNW 21:42:35 10° NNE
Cosmos 1833 Rocket 4.2 21:35:25 15° ESE 21:37:21 17° E 21:40:53 10° ENE
Okean 1 3.7 21:34:20 10° SSW 21:38:09 62° WNW 21:42:01 10° N
Cosmos 2369 Rocket 4.4 21:34:38 10° WNW 21:38:14 18° W 21:41:51 10° SW
Cosmos 1151 Rocket 3.0 21:37:10 17° S 21:40:28 68° E 21:44:48 10° NNE
Cosmos 1975 3.1 21:37:02 10° N 21:40:54 53° ENE 21:43:09 23° SE
Meteor 1-11 Rocket 4.5 21:36:37 10° NNW 21:42:05 50° W 21:47:34 10° SSW
Cosmos 1328 Rocket 4.3 21:45:12 22° SE 21:47:20 35° E 21:51:16 10° NNE
Meteor 2-17 Rocket 4.4 21:41:44 10° S 21:47:42 90° E 21:53:47 10° N
Cosmos 1302 Rocket 4.3 21:43:53 10° NNW 21:49:00 60° WSW 21:52:42 19° S
Cosmos 1536 4.5 21:46:11 10° NNW 21:49:32 28° W 21:52:54 10° SSW
Cosmos 1992 Rocket 4.0 21:44:27 10° NNW 21:49:43 76° ENE 21:53:10 22° SSE
Cosmos 1726 4.4 21:49:05 10° NW 21:50:52 14° W 21:52:38 10° WSW
USA 306 4.3 21:50:37 10° W 21:53:29 20° SW 21:54:47 17° SSW
Cosmos 1656 3.7 21:48:56 10° NNW 21:54:24 75° ENE 21:58:06 22° SE
Cosmos 1766 4.1 21:54:09 10° N 21:57:38 35° ENE 21:59:18 23° ESE
Cosmos 1805 3.2 21:55:50 10° NNW 21:59:33 72° W 22:01:33 25° S
Lacrosse 4 Rocket 1.3 21:56:07 10° NNW 22:00:13 85° NE 22:02:26 27° SE
Cosmos 1733 4.3 21:57:41 10° NNW 22:00:53 34° W 22:03:12 16° SSW
Cosmos 1470 Rocket 4.3 21:57:38 10° N 22:01:54 43° ENE 22:04:11 23° SE
H-2A R/B 3.4 22:02:16 21° ESE 22:04:32 38° ENE 22:08:30 10° N
IRIDIUM 104 4.3 22:00:43 10° N 22:05:59 87° E 22:09:22 23° S
Cosmos 2026 Rocket 4.0 22:02:10 19° S 22:06:48 71° E 22:13:01 10° NNE
Cosmos 1470 4.3 22:04:45 10° NNE 22:07:46 23° ENE 22:09:19 18° ESE
Cosmos 1633 Rocket 3.0 22:04:42 10° N 22:09:09 76° E 22:11:28 28° SSE
USA 59 Rocket 0.6 22:06:39 10° NW 22:10:28 49° SW 22:13:06 25° S
Landsat 5 4.0 22:07:30 10° N 22:11:11 51° WNW 22:14:26 13° SW
Cosmos 1666 Rocket 3.5 22:06:54 10° N 22:11:15 86° W 22:13:32 27° S
NOSS 3-3 (A) 4.0 22:08:04 17° S 22:12:02 49° ESE 22:18:05 10° NE
NOSS 2-1 (E) 4.1 22:08:44 10° NW 22:12:34 47° SW 22:15:08 25° S
Cosmos 1340 4.1 22:10:33 10° NW 22:13:27 26° W 22:15:25 16° SW
Orbus 7S? 4.3 22:13:47 27° SE 22:13:47 27° SE 22:16:22 10° E
IRIDIUM 114 4.4 22:09:53 10° N 22:15:07 80° W 22:18:30 22° S
Cosmos 220 Rocket 4.0 22:18:09 18° SSW 22:21:23 83° WNW 22:25:44 10° NNE
CZ-2C R/B 3.7 22:16:54 10° NNE 22:21:24 66° ESE 22:23:38 28° S
Cosmos 44 Rocket 3.7 22:17:04 10° NW 22:22:00 57° NE 22:25:16 20° ESE
Cosmos 1818 3.6 22:21:17 15° SSW 22:25:44 65° SE 22:31:11 10° NE
Cosmos 1933 Rocket 4.3 22:22:53 10° N 22:27:02 40° ENE 22:29:00 25° SE
NOSS 3-4 (A) 4.2 22:20:31 10° NW 22:27:05 60° NE 22:34:26 11° ESE
NOSS 3-4 (C) 4.2 22:20:37 10° NW 22:27:10 59° NE 22:34:35 11° ESE
ALOS 2 3.6 22:26:21 22° ESE 22:28:37 37° ENE 22:32:40 10° N
BREEZE-M DEB (TANK) 4.2 22:31:06 25° ESE 22:31:06 25° ESE 22:35:07 10° ENE
Cosmos 1697 Rocket 2.9 22:26:20 10° NNW 22:31:58 65° ENE 22:35:28 23° SE
USA 281 4.1 22:30:22 18° SSW 22:34:47 39° WSW 22:40:55 10° NW
Cosmos 1553 Rocket 3.9 22:30:18 10° N 22:36:25 79° E 22:39:57 27° SSE
GEOS 3 Rocket 3.7 22:31:32 10° NE 22:36:45 76° NW 22:41:51 10° SW
Meteor 2-4 Rocket 4.1 22:33:18 17° SSW 22:38:00 69° WNW 22:43:58 10° N
Cosmos 1674 3.0 22:37:26 38° SE 22:38:07 44° E 22:41:28 10° NNE
Cosmos 1980 Rocket 3.2 22:34:47 10° NNW 22:40:12 42° NE 22:44:37 15° ESE
NOSS 3-3 (C) 3.7 22:38:08 16° SSW 22:42:37 71° SE 22:49:05 10° NE
Terra 4.3 22:41:12 10° WSW 22:42:49 12° W 22:44:26 10° WNW
MINOTAUR 4 R/B 3.7 22:40:55 10° N 22:43:53 67° WNW 22:44:36 45° SW
Cosmos 1066 Rocket 4.3 22:41:55 25° S 22:45:27 84° E 22:51:22 10° NNE
Cosmos 407 Rocket 4.4 22:49:43 27° SE 22:51:27 33° ESE 22:56:08 10° NE
Lacrosse 5 rocket 2.7 22:47:34 10° NW 22:51:35 40° NNE 22:55:26 10° E
ARIANE 5 R/B 3.1 22:50:12 29° SSW 22:52:04 49° W 22:56:16 10° NNW
Cosmos 1908 3.6 22:49:55 10° N 22:53:24 46° ENE 22:54:20 36° ESE
USA 234 3.9 22:47:36 10° E 22:53:59 58° NNE 23:00:23 10° WNW
Cosmos 1269 Rocket 4.2 22:54:32 20° SSW 22:58:17 74° WNW 23:03:36 10° NNE
Cosmos 1626 3.2 22:57:24 23° WSW 22:58:46 33° WNW 23:01:45 10° N
Cosmos 2251 Rocket 4.2 23:01:47 29° SE 23:03:34 38° ESE 23:08:25 10° NE
PSLV R/B 4.3 23:01:36 10° N 23:05:36 57° WNW 23:07:35 27° SW
SL-8 R/B 3.6 23:02:30 10° W 23:07:12 63° SSW 23:10:29 19° ESE
Cosmos 1707 2.5 23:09:21 50° SSE 23:10:09 72° E 23:13:48 10° NNE
BREEZE-M DEB (TANK) 2.9 23:08:34 10° W 23:14:08 14° ESE 23:15:03 10° ESE
Cosmos 1441 Rocket 3.4 23:10:06 10° N 23:13:38 55° ENE 23:14:30 42° SE
SL-16 R/B 4.2 23:09:36 10° NNW 23:14:15 25° NE 23:18:51 10° E
Cosmos 2266 Rocket 4.0 23:12:28 30° S 23:15:39 69° E 23:21:54 10° NNE
Spot 4 4.0 23:13:59 34° S 23:15:55 62° WSW 23:20:40 10° NNW
Cosmos 1842 3.2 23:15:46 43° SSW 23:16:49 71° W 23:20:31 10° N
Cosmos 1655 Rocket 4.4 23:15:56 28° SSE 23:19:09 53° E 23:25:21 10° NNE
Cosmos 1833 Rocket 2.6 23:17:04 25° SSW 23:20:30 87° WNW 23:26:10 10° NNE
Cosmos 2082 Rocket 3.1 23:23:06 27° SE 23:25:04 35° ESE 23:30:13 10° NE
Cosmos 1300 3.6 23:26:31 10° N 23:29:51 36° ENE 23:30:52 30° ESE
Cosmos 1515 Rocket 4.3 23:28:42 26° SW 23:30:44 46° WNW 23:34:55 10° N
KORONAS-FOTON 4.2 23:30:14 37° SW 23:31:20 53° WNW 23:34:58 10° N
Meteor 1-22 Rocket 4.1 23:26:00 10° N 23:31:21 81° ENE 23:33:54 33° SSE
Cosmos 2228 Rocket 3.9 23:31:44 30° SE 23:33:11 39° E 23:37:24 10° NNE
Meteor 1-15 Rocket 4.2 23:29:54 10° NNW 23:35:36 87° ENE 23:38:16 32° SSE
SL-08 ROCKET BODY 4.4 23:33:08 31° S 23:36:22 86° E 23:42:35 10° N
H-2A R/B 2.5 23:32:42 10° NNE 23:37:03 51° E 23:38:23 37° SSE
Lacrosse 4 Rocket 3.6 23:36:03 10° W 23:37:54 13° WSW 23:38:21 13° WSW
Cosmos 1733 Rocket 3.7 23:33:58 10° N 23:38:11 48° ENE 23:39:58 30° SE
H-2A R/B 3.9 23:38:15 22° SW 23:39:34 26° W 23:43:11 10° NW
Cosmos 1869 Rocket 3.7 23:36:45 10° NNW 23:41:05 64° W 23:42:30 40° SSW
Cosmos 1470 3.8 23:39:53 10° NNW 23:43:11 30° W 23:43:59 27° WSW
SOZ 4.5 23:43:19 10° WSW 23:46:37 89° NNW 23:49:06 10° ENE
Cosmos 1400 Rocket 2.9 23:54:09 45° SSE 23:55:10 65° E 23:59:07 10° NNE
GP-B 3.0 23:50:51 10° N 23:55:18 90° ESE 23:56:49 41° S
